Regional Weather Roundup
Issued by NWS Newport/Morehead, NC

Current Version | Previous Version | Graphics & Text | Print | Product List | Glossary Off
Versions: 1 2 3 4 5 6 7 8 9 10 11 12 13 14 15 16 17 18 19 20 21 22 23 24 25 26 27 28 29 30 31 32 33 34 35 36 37 38 39 40 41 42 43 44 45 46 47 48 49 50

000
ASUS42 KMHX 221224
RWRMHX
WEATHER ROUNDUP FOR EASTERN NORTH CAROLINA
NATIONAL WEATHER SERVICE NEWPORT/MOREHEAD CITY NC
800 AM EDT SAT JUL 22 2017

NOTE: "FAIR" INDICATES FEW OR NO CLOUDS BELOW 12,000 FEET
WITH NO SIGNIFICANT WEATHER AND/OR OBSTRUCTIONS TO VISIBILITY

NCZ015>017-031-032-045>047-102-103-221300-
NORTH COAST

CITY           SKY/WX    TMP DP  RH WIND       PRES   REMARKS
EDENTON        SUNNY     82  76  81 CALM      29.96R
ELIZABETH CITY NOT AVBL
KITTY HAWK     SUNNY     81  74  80 CALM      29.95R
MANTEO         SUNNY     80  75  83 W12       29.97R

$$

NCZ045>047-081-094-103-104-221300-
CENTRAL COAST

CITY           SKY/WX    TMP DP  RH WIND       PRES   REMARKS
FRISCO         SUNNY     78  74  87 SW9       29.99R

$$

NCZ095-097-098-100-101-221300-
SOUTHERN COAST

CITY           SKY/WX    TMP DP  RH WIND       PRES   REMARKS
BEAUFORT       SUNNY     82  78  88 SW15      30.01R
CEDAR ISLAND   NOT AVBL
JACKSONVILLE   MOSUNNY   80  78  94 SW8       30.00R
PINEY ISLAND   SUNNY    N/A N/A N/A SW14G20   30.00R
WILMINGTON     SUNNY     80  77  90 SW8       30.02R


$$

NCZ011>013-027>030-043-044-078>080-089-090>093-098-221300-
COASTAL PLAIN

CITY           SKY/WX    TMP DP  RH WIND       PRES   REMARKS
AHOSKIE          N/A     78  75  89 CALM      29.96R
CLINTON        MOSUNNY   78  77  96 SW3       30.01R
ELIZABETHTOWN  NOT AVBL
GOLDSBORO      SUNNY     79  79 100 SW8       29.97R
GREENVILLE     SUNNY     81  73  78 SW8       29.99R
HAVELOCK       SUNNY     80  75  84 SW13      30.02R
KENANSVILLE    MOSUNNY   79  75  89 SW6       30.01R
KINSTON        SUNNY     79  73  83 SW10      30.00R
NEW BERN       SUNNY     79  76  90 SW8       30.01R
RICHLANDS      MOSUNNY   79  76  90 SW8       30.01R
ROCKY MOUNT    SUNNY     79  76  90 SW9       29.97R
WASHINGTON     SUNNY     80  74  82 SW7       29.98S
WHITEVILLE     MOSUNNY   79  76  90 SW7       30.02R

$$

AMZ130-135-150-152-154-156-158-170-250-252-270-ANZ085-086-088-633-658-670-221300-
MARINE OBSERVATIONS

STATION/POSITION TIME  TEMP    WIND        PRES    WAVE   SWELL
                       AIR SEA DIR/SP/G            HT/PER HT/PER
                 (UTC) (F)     (DEG/KT/KT) (MB)    (FT/S) (FT/S)
CHESAPEAKE LIGHT NOT AVBL
64 E VA BEACH    1150   80 80  230/ 16/ 17 1013.7    4/ 6   2/10
DUCK             1200   80 58  230/ 13/ 16 1013.8
2 E DUCK         1200      62                N/A     2/10
OREGON INLET     1200   81 82  220/ 17/ 20 1014.6
13E OREGON INLT  1148      80                N/A     3/ 9   2/ 9
HATTERAS CG      1200   78 78  220/  8/ 12 1015.6
DIAMOND BUOY     1150   82 84  240/ 19/ 23 1015.4    4/ 9   2/ 9
CAPE LOOKOUT     1200   82     240/  9/ 13 1016.1
BEAUFORT LAB     1200   81 79  240/  5/ 12 1015.7
30 SE NEW RVR IN 1208   80 81  240/ 12/ 16 1016.9
30 SE NEW RVR IN 1143      81                N/A     4/ 5   2/11
27 SE WRIGHTSVLE 1208   82 81  230/ 12/ 17 1016.8
5 SE WRIGHTSVLE  1208   80 80  230/  8/ 10 1016.5
225 S CAPE HAT   1150   83 83  210/ 14/ 16 1018.6    4/10   3/10
41 SE CHARLESTON 1210   83 83  220/  8/ 10 1016.9

$$




USA.gov is the U.S. government's official web portal to all federal, state and local government web resources and services.